Wind_Speed
30 30 33 35 36 38 41 43 45 41 39 37 36 37 38 41 41 41 42 43 45 48 49 51 52 52 50 49 49 48 47 46 44 44 43 42 41 40 39 39 38 38 37 37
30 30 33 36 37 38 39 41 43 43 42 38 37 36 36 39 41 41 41 41 43 45 47 49 50 50 49 48 47 47 46 45 44 43 42 41 40 39 38 38 37 37 36 36
30 30 33 35 35 36 37 38 42 43 41 40 39 39 37 36 40 42 42 42 43 44 44 46 47 48 49 48 47 46 45 44 44 43 41 40 39 38 37 37 36 36 36 35
29 30 33 29 32 34 36 38 41 42 41 40 39 39 39 38 38 40 41 41 42 43 44 45 45 46 47 47 46 44 44 43 43 42 40 39 38 37 37 36 35 35 35 34
28 31 31 28 28 31 34 37 40 41 41 42 40 40 39 39 40 40 40 41 42 42 43 43 43 44 44 44 43 42 41 40 40 40 38 38 37 36 36 35 35 34 34 34
28 29 31 27 26 27 32 35 37 40 42 41 41 40 39 39 39 39 41 42 42 42 43 43 43 42 42 41 40 39 39 38 38 37 37 36 36 35 34 34 33 33 33 33
28 29 29 27 26 28 32 33 34 39 41 42 41 39 38 39 39 40 40 42 42 42 42 42 41 41 40 40 39 39 38 37 37 36 35 34 34 34 33 33 33 32 32 33
27 29 27 25 28 30 32 34 33 36 40 43 43 41 39 40 40 41 40 41 41 42 42 41 41 41 40 39 38 38 37 36 35 35 34 33 33 32 32 32 32 32 32 32
29 29 27 26 29 30 33 35 35 36 39 42 43 42 41 40 40 40 40 40 41 41 41 41 40 40 40 39 38 37 36 35 34 34 33 33 32 31 31 31 30 30 30 30
29 28 27 27 29 31 32 35 35 36 37 39 41 43 42 42 42 41 40 40 40 40 41 40 39 39 39 39 38 36 35 34 33 33 32 32 31 31 30 30 30 29 29 30
30 28 28 29 30 31 33 34 35 36 36 37 38 40 42 43 44 43 42 41 40 40 40 39 39 39 38 38 37 36 34 33 32 31 31 31 30 30 30 29 29 29 29 29
29 28 30 30 32 33 32 33 34 35 36 36 36 37 39 41 42 43 42 41 41 41 41 40 40 39 37 37 36 35 34 33 32 31 30 30 30 29 29 29 29 28 28 28
29 29 29 30 32 33 32 32 34 35 36 36 36 36 39 40 41 42 42 40 40 41 41 40 39 38 37 36 36 35 34 33 32 31 30 30 30 29 29 28 28 27 27 27
28 29 29 29 31 32 33 33 35 36 37 37 36 37 38 40 41 40 41 40 40 40 41 41 39 38 37 36 35 35 33 32 31 31 30 29 29 28 28 27 27 26 26 27
27 28 29 30 31 31 32 34 35 36 37 38 37 37 38 39 41 41 41 41 41 41 40 40 39 38 37 36 35 34 33 31 31 30 30 29 28 27 27 27 26 26 26 26
25 26 27 29 29 31 32 33 34 35 36 37 38 38 39 39 40 40 41 42 42 42 41 39 38 37 37 36 35 33 32 32 31 31 30 29 28 27 26 26 26 26 26 26
24 25 27 28 29 30 31 32 33 35 36 36 37 38 39 39 39 39 40 40 41 42 42 40 39 38 37 37 35 33 32 32 31 30 30 29 28 27 26 26 26 26 26 26
23 23 25 26 27 29 29 30 32 34 36 37 37 38 38 38 38 39 40 40 40 41 41 41 40 38 38 37 35 33 32 31 30 30 29 29 28 27 27 26 26 26 26 27
20 20 22 24 25 26 27 29 30 32 34 35 35 35 35 36 36 37 39 40 40 40 40 40 40 38 37 35 34 33 32 31 30 30 29 29 27 27 27 27 26 26 26 27
18 18 20 22 23 24 26 27 28 31 33 34 34 33 34 34 34 35 36 37 38 38 38 38 38 37 36 35 33 32 32 31 30 30 29 28 27 26 26 26 26 26 27 27
16 16 18 20 22 23 25 26 27 29 31 32 33 33 33 33 34 34 35 35 36 37 37 36 36 35 35 34 33 32 31 31 30 29 28 27 26 26 25 26 26 26 26 27
15 16 18 19 21 23 26 26 27 28 29 29 30 31 31 32 32 32 32 33 34 35 36 35 34 34 34 33 32 31 31 30 29 27 26 25 25 25 25 25 25 26 26 26
15 16 17 19 22 25 27 27 28 29 29 29 29 29 30 30 30 30 30 31 32 33 34 34 34 34 33 31 31 30 30 29 27 26 26 26 25 25 25 25 25 25 26 26
14 16 18 20 24 26 26 27 27 28 28 28 28 28 29 29 29 29 30 30 31 32 32 31 31 31 31 30 30 30 29 28 27 26 25 25 24 24 25 25 25 26 26 26
14 17 19 20 23 24 25 26 26 26 26 26 27 27 28 29 30 30 30 30 31 31 31 31 30 30 29 29 28 27 27 27 26 26 25 24 24 24 25 25 26 25 25 26
15 17 20 21 23 24 24 25 25 25 26 26 26 26 27 28 29 30 30 30 30 29 29 29 30 30 29 28 27 26 26 26 25 24 24 24 24 24 25 25 25 25 26 26
15 18 21 22 23 23 24 24 25 25 26 25 25 26 27 27 27 28 29 29 28 28 27 28 28 28 27 26 26 25 25 25 24 24 23 24 24 24 24 25 25 25 26 27
Wind_Direction
248 242 235 230 227 226 227 228 229 224 223 222 223 222 220 221 222 223 224 225 225 227 227 228 228 230 232 233 234 235 236 239 241 244 247 249 251 253 255 257 260 263 265 267
246 242 238 233 228 227 228 229 228 226 224 224 225 222 219 220 220 222 223 222 222 224 226 227 227 228 230 232 233 234 236 238 241 243 245 248 250 252 255 257 260 262 264 266
247 243 239 235 229 230 229 227 226 228 227 227 228 224 220 218 218 220 221 219 219 221 223 224 226 227 229 230 232 233 236 238 240 242 244 247 249 252 255 257 259 262 264 267
250 244 242 237 232 233 231 228 228 228 227 229 229 226 223 219 217 218 219 219 218 219 220 221 224 225 227 229 231 233 235 237 239 242 244 246 248 251 254 256 259 261 264 267
252 247 244 239 235 234 232 230 228 228 227 227 227 227 223 220 218 217 217 217 216 217 218 219 222 224 225 227 230 232 234 236 237 239 242 245 247 250 252 255 258 261 263 266
251 249 245 238 234 232 233 232 228 227 227 226 226 226 222 221 219 218 216 215 215 215 216 217 219 222 224 226 229 231 233 235 236 238 241 244 247 249 251 254 257 259 262 265
252 251 248 239 234 229 230 228 227 226 225 224 224 223 220 220 220 222 218 214 214 214 215 216 218 219 222 224 226 228 230 233 235 237 239 243 246 248 249 252 255 259 263 266
251 250 247 239 234 230 229 227 227 227 224 224 225 222 220 219 220 222 219 215 214 214 213 214 216 217 219 221 224 227 229 231 234 236 239 242 245 248 250 252 256 261 264 268
251 249 245 238 233 230 228 229 228 228 226 225 224 223 221 219 219 219 218 215 214 213 212 213 215 216 218 220 222 225 228 230 233 236 239 242 245 248 250 253 257 261 265 268
252 247 242 238 233 231 229 228 228 227 226 224 222 222 221 220 218 217 216 213 213 213 213 212 212 214 217 219 221 224 228 230 233 236 239 241 244 247 250 253 257 261 265 268
254 248 242 236 234 231 228 227 226 226 226 224 221 221 220 219 218 217 215 214 213 213 214 214 213 213 215 218 221 224 227 229 232 236 238 241 244 247 251 254 258 261 265 268
253 248 243 234 231 229 227 226 225 225 225 221 218 218 218 217 216 216 216 215 213 212 213 215 215 214 216 219 222 224 227 230 233 235 237 240 243 247 251 255 259 261 265 269
251 247 241 232 229 229 228 227 225 224 222 220 218 217 216 215 214 215 214 214 213 213 214 215 216 216 218 221 224 225 227 230 233 234 236 240 243 247 252 256 259 262 266 269
250 246 239 232 230 229 230 228 224 221 221 220 218 216 214 213 213 214 214 214 213 213 213 214 215 216 218 221 224 226 228 231 233 234 237 240 244 249 253 256 259 263 266 269
252 247 240 234 230 230 229 227 223 220 219 218 217 215 212 211 212 213 213 213 213 213 213 215 215 215 218 222 224 226 229 231 234 236 238 242 245 250 254 257 260 263 266 270
252 245 239 233 230 228 226 224 220 217 215 214 212 211 211 210 210 211 213 213 213 213 213 215 215 217 219 221 224 225 228 231 234 236 239 242 246 250 254 257 260 263 267 271
254 246 237 230 227 225 223 220 216 213 211 209 207 206 207 208 207 208 210 211 212 212 213 214 215 217 219 222 223 225 228 231 234 237 239 243 246 249 253 257 261 264 268 272
255 247 237 230 225 221 218 215 212 209 207 204 204 204 206 208 208 209 209 210 211 211 213 214 216 217 219 221 222 223 226 230 234 237 240 242 245 249 254 258 261 264 268 272
252 245 233 223 218 214 211 208 204 202 199 200 201 203 204 205 206 208 209 210 210 210 212 214 215 216 218 220 221 222 225 228 232 236 239 242 246 251 254 258 261 266 270 274
244 234 225 216 209 205 204 201 198 196 194 197 200 202 203 204 205 208 210 210 208 208 210 213 215 216 216 217 219 221 224 227 232 236 240 243 247 252 256 259 262 267 272 276
234 226 218 210 203 199 198 195 193 191 192 194 196 198 200 201 204 205 208 208 208 207 208 210 212 212 212 214 217 221 224 228 232 237 240 244 249 253 257 261 265 270 274 278
223 218 213 205 198 195 194 192 191 189 190 191 193 196 198 199 201 202 203 203 202 202 204 205 207 209 210 214 218 222 224 228 231 235 240 246 250 254 259 263 268 271 275 279
216 211 205 198 192 190 190 190 190 189 191 193 194 195 196 197 200 200 200 201 201 202 204 204 206 208 211 214 218 221 224 229 233 237 242 247 251 256 260 264 268 271 276 281
208 201 195 189 187 186 185 186 188 189 191 193 193 194 195 195 195 196 197 198 200 201 203 204 206 209 213 216 219 222 227 232 236 241 244 248 253 257 260 264 268 273 278 282
199 192 186 183 183 183 184 186 186 187 190 192 192 193 193 194 196 198 199 199 199 201 204 205 207 210 213 216 220 225 230 234 237 241 245 249 253 257 262 266 270 274 278 284
188 183 181 179 180 183 185 185 184 185 187 189 192 194 194 194 196 197 198 199 200 201 204 207 209 211 214 217 221 226 231 235 239 243 247 251 254 258 263 266 270 275 280 285
182 181 179 178 180 182 183 183 183 184 185 187 190 191 192 193 195 196 197 199 200 202 204 207 209 211 214 219 223 227 232 235 240 245 248 251 255 259 263 267 272 277 282 286
Height
5459 5462 5465 5468 5473 5478 5482 5488 5495 5503 5510 5518 5525 5532 5539 5547 5554 5562 5569 5577 5585 5594 5602 5610 5619 5627 5635 5643 5650 5656 5663 5669 5674 5680 5684 5688 5692 5695 5697 5699 5701 5702 5703 5704
5451 5454 5457 5460 5466 5471 5476 5482 5489 5495 5502 5511 5517 5524 5532 5538 5545 5554 5561 5568 5576 5584 5592 5601 5609 5618 5626 5633 5640 5647 5653 5659 5665 5670 5675 5679 5682 5685 5688 5690 5692 5693 5694 5695
5444 5447 5448 5453 5461 5466 5471 5476 5482 5488 5497 5502 5508 5516 5524 5530 5536 5544 5552 5559 5567 5575 5583 5592 5600 5608 5616 5624 5631 5637 5644 5650 5655 5660 5665 5669 5673 5676 5678 5681 5683 5684 5685 5686
5437 5440 5442 5451 5456 5459 5463 5469 5475 5481 5488 5494 5500 5508 5515 5522 5529 5536 5544 5551 5559 5567 5575 5583 5591 5599 5606 5614 5621 5628 5635 5641 5646 5651 5655 5660 5663 5666 5669 5672 5674 5675 5676 5677
5430 5432 5435 5443 5448 5452 5456 5462 5468 5474 5480 5486 5493 5500 5508 5514 5521 5528 5536 5543 5551 5559 5566 5574 5582 5590 5598 5605 5613 5619 5626 5632 5637 5642 5646 5650 5654 5657 5660 5662 5664 5666 5667 5668
5424 5426 5429 5438 5442 5445 5449 5453 5460 5465 5472 5479 5485 5492 5501 5507 5513 5520 5528 5535 5543 5550 5558 5566 5574 5582 5590 5597 5604 5611 5617 5623 5628 5632 5637 5641 5645 5648 5651 5653 5656 5657 5658 5659
5418 5419 5422 5431 5434 5437 5442 5448 5452 5456 5463 5470 5476 5485 5493 5499 5505 5512 5520 5528 5536 5543 5551 5559 5566 5574 5582 5589 5596 5602 5608 5614 5619 5623 5628 5632 5636 5639 5642 5645 5647 5648 5650 5651
5411 5412 5419 5423 5426 5430 5433 5439 5444 5448 5454 5461 5469 5476 5483 5490 5497 5505 5512 5520 5528 5536 5544 5551 5558 5566 5573 5581 5588 5594 5600 5605 5610 5615 5619 5623 5627 5630 5633 5636 5638 5640 5641 5642
5405 5408 5411 5414 5417 5421 5425 5430 5436 5441 5447 5453 5460 5467 5475 5483 5490 5498 5505 5512 5520 5528 5536 5543 5551 5559 5566 5573 5579 5586 5591 5597 5602 5606 5611 5615 5619 5622 5625 5628 5630 5631 5633 5634
5395 5399 5403 5405 5408 5412 5416 5421 5427 5432 5438 5444 5452 5459 5466 5475 5482 5490 5498 5505 5512 5520 5528 5536 5543 5551 5558 5565 5571 5578 5584 5589 5594 5599 5603 5607 5611 5614 5617 5619 5621 5623 5624 5625
5387 5391 5394 5397 5400 5404 5408 5413 5418 5424 5430 5436 5443 5451 5458 5466 5474 5482 5490 5498 5505 5513 5521 5528 5536 5544 5551 5558 5564 5570 5576 5581 5586 5591 5595 5599 5603 5606 5609 5611 5613 5615 5616 5617
5379 5383 5384 5388 5391 5395 5399 5405 5410 5416 5422 5428 5435 5443 5450 5458 5466 5474 5482 5490 5498 5506 5514 5521 5529 5536 5544 5550 5557 5563 5569 5574 5579 5583 5587 5591 5595 5598 5600 5603 5605 5606 5607 5608
5371 5373 5375 5379 5383 5387 5392 5397 5403 5408 5414 5421 5428 5435 5442 5450 5458 5466 5475 5483 5491 5498 5507 5514 5522 5530 5537 5543 5550 5556 5562 5567 5572 5576 5580 5584 5587 5590 5593 5595 5597 5598 5599 5600
5362 5364 5367 5371 5375 5379 5384 5389 5394 5400 5406 5413 5421 5428 5435 5443 5451 5459 5468 5476 5484 5491 5499 5508 5516 5523 5530 5536 5543 5549 5554 5559 5564 5568 5572 5576 5579 5582 5585 5587 5589 5590 5591 5592
5355 5356 5359 5363 5367 5371 5375 5380 5385 5392 5399 5405 5413 5420 5428 5436 5444 5453 5461 5469 5476 5484 5493 5501 5509 5516 5523 5529 5536 5541 5547 5552 5557 5561 5565 5568 5572 5575 5577 5580 5581 5582 5583 5584
5347 5349 5351 5355 5359 5362 5367 5372 5377 5384 5391 5398 5406 5414 5422 5429 5438 5446 5454 5462 5470 5478 5486 5494 5502 5509 5516 5523 5529 5535 5540 5545 5550 5554 5558 5561 5564 5567 5570 5572 5573 5575 5576 5576
5340 5342 5345 5348 5351 5355 5360 5365 5370 5377 5384 5392 5399 5407 5415 5423 5432 5440 5448 5455 5463 5471 5479 5487 5495 5502 5509 5515 5522 5528 5533 5538 5542 5547 5550 5554 5557 5560 5562 5564 5566 5567 5568 5568
5334 5336 5338 5341 5344 5349 5354 5359 5365 5371 5378 5386 5394 5402 5410 5418 5426 5434 5441 5449 5456 5464 5472 5480 5487 5495 5502 5508 5515 5521 5526 5531 5535 5540 5543 5547 5550 5553 5555 5557 5558 5559 5560 5560
5328 5330 5332 5336 5339 5344 5349 5355 5360 5367 5374 5381 5390 5398 5406 5413 5421 5428 5435 5443 5450 5458 5466 5473 5481 5488 5495 5502 5508 5514 5519 5524 5529 5533 5536 5540 5543 5545 5548 5549 5551 5551 5552 5552
5323 5325 5328 5331 5335 5340 5346 5351 5357 5364 5371 5379 5386 5394 5402 5409 5416 5423 5430 5437 5445 5452 5459 5467 5474 5482 5489 5495 5501 5507 5513 5518 5522 5526 5529 5533 5536 5538 5540 5542 5543 5543 5544 5544
5320 5322 5325 5329 5333 5338 5343 5349 5355 5362 5369 5377 5384 5391 5398 5405 5411 5419 5426 5432 5439 5447 5454 5461 5469 5476 5483 5489 5495 5501 5506 5511 5515 5519 5523 5526 5529 5531 5532 5534 5535 5536 5536 5536
5318 5320 5323 5327 5331 5336 5342 5348 5354 5361 5367 5374 5381 5388 5394 5401 5408 5415 5421 5428 5435 5442 5449 5457 5464 5471 5477 5484 5489 5495 5500 5505 5509 5513 5516 5519 5521 5523 5525 5526 5527 5528 5528 5528
5316 5318 5321 5325 5330 5335 5341 5347 5353 5360 5366 5372 5379 5386 5392 5398 5405 5412 5418 5425 5431 5438 5445 5452 5459 5466 5472 5478 5484 5489 5494 5498 5502 5506 5509 5511 5514 5515 5517 5518 5519 5520 5520 5520
5314 5317 5321 5324 5330 5335 5341 5347 5353 5359 5365 5371 5377 5383 5390 5396 5402 5408 5415 5421 5428 5435 5442 5448 5454 5461 5467 5473 5478 5483 5488 5492 5495 5499 5502 5504 5506 5508 5510 5511 5512 5512 5512 5512
5313 5317 5321 5325 5330 5336 5341 5347 5352 5358 5363 5369 5375 5381 5387 5394 5400 5407 5412 5419 5425 5431 5438 5444 5450 5456 5462 5468 5473 5477 5481 5485 5489 5492 5495 5497 5499 5501 5502 5503 5504 5504 5504 5503
5313 5317 5321 5326 5331 5336 5342 5347 5352 5357 5363 5368 5374 5380 5386 5392 5398 5404 5410 5416 5422 5428 5434 5440 5446 5452 5457 5462 5467 5471 5475 5479 5482 5485 5488 5490 5492 5494 5495 5496 5496 5496 5496 5495
5314 5318 5322 5327 5332 5337 5342 5347 5352 5357 5363 5368 5374 5379 5385 5391 5396 5402 5408 5414 5420 5425 5431 5436 5442 5447 5453 5457 5462 5466 5469 5473 5476 5479 5481 5483 5485 5486 5487 5487 5488 5488 5487 5486